Time,TemperatureF,DewpointF,PressureIn,WindDirection,WindDirectionDegrees,WindSpeedMPH,WindSpeedGustMPH,Humidity,HourlyPrecipIn,Conditions,Clouds,dailyrainin,SoftwareType,DateUTC
2013-01-23 00:04:00,52.3,47.6,30.23,SSW,198,0.0,0.0,84,0.00,CLR,,0.00,WeatherDisplay:10.37,2013-01-23 06:04:00,
2013-01-23 00:09:00,52.0,47.3,30.23,SSW,198,0.0,0.0,84,0.00,CLR,,0.00,WeatherDisplay:10.37,2013-01-23 06:09:00,
2013-01-23 00:14:00,51.8,46.8,30.23,SSW,198,0.0,0.0,83,0.00,CLR,,0.00,WeatherDisplay:10.37,2013-01-23 06:14:00,
2013-01-23 00:19:00,51.6,46.9,30.23,SSW,198,0.0,0.0,84,0.00,CLR,,0.00,WeatherDisplay:10.37,2013-01-23 06:19:00,
2013-01-23 00:24:00,51.3,46.6,30.23,SSW,198,0.0,0.0,84,0.00,CLR,,0.00,WeatherDisplay:10.37,2013-01-23 06:24:00,
2013-01-23 00:29:00,51.0,46.0,30.23,SSW,198,0.0,0.0,83,0.00,CLR,,0.00,WeatherDisplay:10.37,2013-01-23 06:29:00,
2013-01-23 00:34:00,50.8,45.8,30.23,SSW,198,0.0,0.0,83,0.00,CLR,,0.00,WeatherDisplay:10.37,2013-01-23 06:34:00,
2013-01-23 00:39:00,50.5,45.5,30.23,SSW,198,0.0,0.0,83,0.00,CLR,,0.00,WeatherDisplay:10.37,2013-01-23 06:39:00,
2013-01-23 00:44:00,50.3,45.3,30.23,SSW,198,0.0,0.0,83,0.00,CLR,,0.00,WeatherDisplay:10.37,2013-01-23 06:44:00,
2013-01-23 00:49:00,50.0,45.0,30.23,SSW,198,0.0,0.0,83,0.00,CLR,,0.00,WeatherDisplay:10.37,2013-01-23 06:49:00,
2013-01-23 00:54:00,49.8,44.8,30.23,SSW,198,0.0,0.0,83,0.00,CLR,,0.00,WeatherDisplay:10.37,2013-01-23 06:54:00,
2013-01-23 00:59:00,49.5,44.9,30.23,SSW,198,0.0,0.0,84,0.00,CLR,,0.00,WeatherDisplay:10.37,2013-01-23 06:59:00,
2013-01-23 01:04:00,49.2,44.6,30.23,SSW,198,0.0,0.0,84,0.00,CLR,,0.00,WeatherDisplay:10.37,2013-01-23 07:04:00,
2013-01-23 01:09:00,49.0,44.4,30.23,SSW,198,0.0,0.0,84,0.00,CLR,,0.00,WeatherDisplay:10.37,2013-01-23 07:09:00,
2013-01-23 01:14:00,48.7,44.1,30.23,SSW,198,0.0,0.0,84,0.00,CLR,,0.00,WeatherDisplay:10.37,2013-01-23 07:14:00,
2013-01-23 01:19:00,48.4,43.8,30.23,SSW,198,0.0,0.0,84,0.00,CLR,,0.00,WeatherDisplay:10.37,2013-01-23 07:19:00,
2013-01-23 01:24:00,48.1,43.8,30.23,SSW,198,0.0,0.0,85,0.00,CLR,,0.00,WeatherDisplay:10.37,2013-01-23 07:24:00,
2013-01-23 01:29:00,47.8,43.8,30.24,SSW,198,0.0,0.0,86,0.00,CLR,,0.00,WeatherDisplay:10.37,2013-01-23 07:29:00,
2013-01-23 01:34:00,47.7,43.7,30.24,SSW,198,0.0,0.0,86,0.00,CLR,,0.00,WeatherDisplay:10.37,2013-01-23 07:34:00,
2013-01-23 01:39:00,47.5,43.5,30.24,SSW,198,0.0,0.0,86,0.00,CLR,,0.00,WeatherDisplay:10.37,2013-01-23 07:39:00,
2013-01-23 01:44:00,47.3,43.6,30.24,SSW,198,0.0,0.0,87,0.00,CLR,,0.00,WeatherDisplay:10.37,2013-01-23 07:44:00,
2013-01-23 01:49:00,47.2,43.5,30.23,SSW,198,0.0,0.0,87,0.00,CLR,,0.00,WeatherDisplay:10.37,2013-01-23 07:49:00,
2013-01-23 01:54:00,47.1,43.7,30.24,SSW,198,0.0,0.0,88,0.00,CLR,,0.00,WeatherDisplay:10.37,2013-01-23 07:54:00,
2013-01-23 01:59:00,47.0,43.6,30.23,SSW,198,0.0,0.0,88,0.00,CLR,,0.00,WeatherDisplay:10.37,2013-01-23 07:59:00,
2013-01-23 02:04:00,47.0,43.9,30.23,SSW,198,0.0,0.0,89,0.00,CLR,,0.00,WeatherDisplay:10.37,2013-01-23 08:04:00,
2013-01-23 02:09:00,46.9,43.5,30.23,SSW,198,0.0,0.0,88,0.00,CLR,,0.00,WeatherDisplay:10.37,2013-01-23 08:09:00,
2013-01-23 02:14:00,46.8,43.4,30.23,SSW,198,0.0,0.0,88,0.00,CLR,,0.00,WeatherDisplay:10.37,2013-01-23 08:14:00,
2013-01-23 02:19:00,46.7,43.3,30.23,SSW,198,0.0,0.0,88,0.00,CLR,,0.00,WeatherDisplay:10.37,2013-01-23 08:19:00,
2013-01-23 02:24:00,46.5,43.1,30.23,SSW,198,0.0,0.0,88,0.00,CLR,,0.00,WeatherDisplay:10.37,2013-01-23 08:24:00,
2013-01-23 02:29:00,46.3,42.9,30.23,SSW,198,0.0,0.0,88,0.00,CLR,,0.00,WeatherDisplay:10.37,2013-01-23 08:29:00,
2013-01-23 02:34:00,46.0,42.6,30.23,SSW,198,0.0,0.0,88,0.00,CLR,,0.00,WeatherDisplay:10.37,2013-01-23 08:34:00,
2013-01-23 02:39:00,45.8,42.4,30.23,SSW,198,0.0,0.0,88,0.00,CLR,,0.00,WeatherDisplay:10.37,2013-01-23 08:39:00,
2013-01-23 02:44:00,45.6,42.5,30.23,SSW,198,0.0,0.0,89,0.00,CLR,,0.00,WeatherDisplay:10.37,2013-01-23 08:44:00,
2013-01-23 02:49:00,45.5,42.4,30.23,SSW,198,0.0,0.0,89,0.00,CLR,,0.00,WeatherDisplay:10.37,2013-01-23 08:49:00,
2013-01-23 02:54:00,45.4,42.3,30.23,SSW,198,0.0,0.0,89,0.00,CLR,,0.00,WeatherDisplay:10.37,2013-01-23 08:54:00,
2013-01-23 02:59:00,45.2,42.4,30.23,SSW,198,0.0,0.0,90,0.00,CLR,,0.00,WeatherDisplay:10.37,2013-01-23 08:59:00,
2013-01-23 03:04:00,45.1,42.1,30.23,SSW,198,0.0,0.0,89,0.00,CLR,,0.00,WeatherDisplay:10.37,2013-01-23 09:04:00,
2013-01-23 03:09:00,45.0,42.2,30.23,SSW,198,0.0,0.0,90,0.00,CLR,,0.00,WeatherDisplay:10.37,2013-01-23 09:09:00,
2013-01-23 03:14:00,44.9,42.1,30.23,SSW,198,0.0,0.0,90,0.00,CLR,,0.00,WeatherDisplay:10.37,2013-01-23 09:14:00,
2013-01-23 03:19:00,44.8,42.0,30.23,SSW,198,0.0,0.0,90,0.00,CLR,,0.00,WeatherDisplay:10.37,2013-01-23 09:19:00,
2013-01-23 03:24:00,44.7,41.7,30.23,SSW,198,0.0,0.0,89,0.00,CLR,,0.00,WeatherDisplay:10.37,2013-01-23 09:24:00,
2013-01-23 03:29:00,44.5,41.7,30.23,SSW,198,0.0,0.0,90,0.00,CLR,,0.00,WeatherDisplay:10.37,2013-01-23 09:29:00,
2013-01-23 03:34:00,44.4,41.7,30.23,SSW,198,0.0,0.0,90,0.00,CLR,,0.00,WeatherDisplay:10.37,2013-01-23 09:34:00,
2013-01-23 03:39:00,44.3,41.6,30.23,SSW,198,0.0,0.0,90,0.00,CLR,,0.00,WeatherDisplay:10.37,2013-01-23 09:39:00,
2013-01-23 03:44:00,44.2,41.5,30.23,SSW,198,0.0,0.0,90,0.00,CLR,,0.00,WeatherDisplay:10.37,2013-01-23 09:44:00,
2013-01-23 03:49:00,44.1,41.4,30.22,SSW,198,0.0,0.0,90,0.00,CLR,,0.00,WeatherDisplay:10.37,2013-01-23 09:49:00,
2013-01-23 03:54:00,44.0,41.3,30.22,SSW,198,0.0,0.0,90,0.00,CLR,,0.00,WeatherDisplay:10.37,2013-01-23 09:54:00,
2013-01-23 03:59:00,44.0,41.5,30.22,SSW,198,0.0,0.0,91,0.00,CLR,,0.00,WeatherDisplay:10.37,2013-01-23 09:59:00,
2013-01-23 04:04:00,44.0,41.5,30.22,SSW,198,0.0,0.0,91,0.00,CLR,,0.00,WeatherDisplay:10.37,2013-01-23 10:04:00,
2013-01-23 04:09:00,44.0,41.5,30.22,SSW,198,0.0,0.0,91,0.00,CLR,,0.00,WeatherDisplay:10.37,2013-01-23 10:09:00,
2013-01-23 04:14:00,44.0,41.5,30.22,SSW,198,0.0,0.0,91,0.00,CLR,,0.00,WeatherDisplay:10.37,2013-01-23 10:14:00,
2013-01-23 04:19:00,44.1,41.9,30.22,SSW,198,0.0,0.0,92,0.00,CLR,,0.00,WeatherDisplay:10.37,2013-01-23 10:19:00,
2013-01-23 04:24:00,44.2,42.0,30.22,SSW,198,0.0,0.0,92,0.00,CLR,,0.00,WeatherDisplay:10.37,2013-01-23 10:24:00,
2013-01-23 04:29:00,44.3,42.1,30.22,SSW,198,0.0,0.0,92,0.00,CLR,,0.00,WeatherDisplay:10.37,2013-01-23 10:29:00,
2013-01-23 04:34:00,44.3,42.1,30.22,SSW,198,0.0,0.0,92,0.00,CLR,,0.00,WeatherDisplay:10.37,2013-01-23 10:34:00,
2013-01-23 04:39:00,44.2,42.0,30.22,SSW,198,0.0,0.0,92,0.00,CLR,,0.00,WeatherDisplay:10.37,2013-01-23 10:39:00,
2013-01-23 04:44:00,44.2,42.0,30.22,SSW,198,0.0,0.0,92,0.00,CLR,,0.00,WeatherDisplay:10.37,2013-01-23 10:44:00,
2013-01-23 04:49:00,44.5,42.3,30.22,SSW,198,0.0,0.0,92,0.00,CLR,,0.00,WeatherDisplay:10.37,2013-01-23 10:49:00,
2013-01-23 04:54:00,44.7,42.8,30.22,SSW,198,0.0,0.0,93,0.00,CLR,,0.00,WeatherDisplay:10.37,2013-01-23 10:54:00,
2013-01-23 04:59:00,44.8,42.9,30.22,SSW,198,0.0,0.0,93,0.00,CLR,,0.00,WeatherDisplay:10.37,2013-01-23 10:59:00,
2013-01-23 05:04:00,44.8,42.9,30.22,SSW,198,0.0,0.0,93,0.00,CLR,,0.00,WeatherDisplay:10.37,2013-01-23 11:04:00,
2013-01-23 05:09:00,44.8,42.9,30.22,SSW,198,0.0,0.0,93,0.00,CLR,,0.00,WeatherDisplay:10.37,2013-01-23 11:09:00,
2013-01-23 05:14:00,44.7,42.8,30.22,SSW,198,0.0,0.0,93,0.00,CLR,,0.00,WeatherDisplay:10.37,2013-01-23 11:14:00,
2013-01-23 05:19:00,44.7,42.8,30.22,SSW,198,0.0,0.0,93,0.00,CLR,,0.00,WeatherDisplay:10.37,2013-01-23 11:19:00,
2013-01-23 05:24:00,44.7,42.8,30.22,SSW,198,0.0,0.0,93,0.00,CLR,,0.00,WeatherDisplay:10.37,2013-01-23 11:24:00,
2013-01-23 05:29:00,44.6,42.7,30.22,SSW,198,0.0,0.0,93,0.00,CLR,,0.00,WeatherDisplay:10.37,2013-01-23 11:29:00,
2013-01-23 05:35:00,44.6,42.7,30.22,SSW,198,0.0,0.0,93,0.00,CLR,,0.00,WeatherDisplay:10.37,2013-01-23 11:35:00,
2013-01-23 05:40:00,44.5,42.6,30.22,SSW,198,0.0,0.0,93,0.00,CLR,,0.00,WeatherDisplay:10.37,2013-01-23 11:40:00,
2013-01-23 05:45:00,44.4,42.5,30.22,SSW,198,0.0,0.0,93,0.00,CLR,,0.00,WeatherDisplay:10.37,2013-01-23 11:45:00,
2013-01-23 05:50:00,44.3,42.4,30.22,SSW,198,0.0,0.0,93,0.00,CLR,,0.00,WeatherDisplay:10.37,2013-01-23 11:50:00,
2013-01-23 05:55:00,44.3,42.4,30.23,SSW,198,0.0,0.0,93,0.00,CLR,,0.00,WeatherDisplay:10.37,2013-01-23 11:55:00,
2013-01-23 06:00:00,44.2,42.3,30.23,SSW,198,0.0,0.0,93,0.00,CLR,,0.00,WeatherDisplay:10.37,2013-01-23 12:00:00,
2013-01-23 06:05:00,44.2,42.3,30.23,SSW,198,0.0,0.0,93,0.00,CLR,,0.00,WeatherDisplay:10.37,2013-01-23 12:05:00,
2013-01-23 06:10:00,44.3,42.4,30.23,SSW,198,0.0,0.0,93,0.00,CLR,,0.00,WeatherDisplay:10.37,2013-01-23 12:10:00,
2013-01-23 06:15:00,44.3,42.4,30.23,SSW,198,0.0,0.0,93,0.00,CLR,,0.00,WeatherDisplay:10.37,2013-01-23 12:15:00,
2013-01-23 06:20:00,44.3,42.7,30.23,SSW,198,0.0,0.0,94,0.00,CLR,,0.00,WeatherDisplay:10.37,2013-01-23 12:20:00,
2013-01-23 06:25:00,44.4,42.8,30.23,SSW,198,0.0,0.0,94,0.00,CLR,,0.00,WeatherDisplay:10.37,2013-01-23 12:25:00,
2013-01-23 06:30:00,44.4,42.8,30.24,SSW,198,0.0,0.0,94,0.00,CLR,,0.00,WeatherDisplay:10.37,2013-01-23 12:30:00,
2013-01-23 06:35:00,44.5,42.9,30.24,SSW,198,0.0,0.0,94,0.00,CLR,,0.00,WeatherDisplay:10.37,2013-01-23 12:35:00,
2013-01-23 06:40:00,44.5,42.9,30.24,SSW,198,0.0,0.0,94,0.00,CLR,,0.00,WeatherDisplay:10.37,2013-01-23 12:40:00,
2013-01-23 06:45:00,44.6,43.0,30.24,SSW,198,0.0,0.0,94,0.00,CLR,,0.00,WeatherDisplay:10.37,2013-01-23 12:45:00,
2013-01-23 06:50:00,44.7,43.1,30.25,SSW,198,0.0,0.0,94,0.00,CLR,,0.00,WeatherDisplay:10.37,2013-01-23 12:50:00,
2013-01-23 06:55:00,44.8,43.2,30.24,SSW,198,0.0,0.0,94,0.00,CLR,,0.00,WeatherDisplay:10.37,2013-01-23 12:55:00,
2013-01-23 07:00:00,44.9,43.3,30.25,SSW,198,0.0,0.0,94,0.00,CLR,,0.00,WeatherDisplay:10.37,2013-01-23 13:00:00,
2013-01-23 07:05:00,44.9,43.3,30.25,SSW,198,0.0,0.0,94,0.00,CLR,,0.00,WeatherDisplay:10.37,2013-01-23 13:05:00,
2013-01-23 07:10:00,44.9,43.3,30.25,SSW,198,0.0,0.0,94,0.00,CLR,,0.00,WeatherDisplay:10.37,2013-01-23 13:10:00,
2013-01-23 07:15:00,45.0,43.4,30.25,SSW,198,0.0,0.0,94,0.00,CLR,,0.00,WeatherDisplay:10.37,2013-01-23 13:15:00,
2013-01-23 07:20:00,45.1,43.5,30.25,SSW,198,0.0,0.0,94,0.00,CLR,,0.00,WeatherDisplay:10.37,2013-01-23 13:20:00,
2013-01-23 07:25:00,45.3,43.7,30.25,SSW,198,0.0,0.0,94,0.00,CLR,,0.00,WeatherDisplay:10.37,2013-01-23 13:25:00,
2013-01-23 07:30:00,45.4,43.8,30.25,SSW,198,0.0,0.0,94,0.00,CLR,,0.00,WeatherDisplay:10.37,2013-01-23 13:30:00,
2013-01-23 07:35:00,45.5,43.9,30.25,SSW,198,0.0,0.0,94,0.00,CLR,,0.00,WeatherDisplay:10.37,2013-01-23 13:35:00,
2013-01-23 07:40:00,45.6,44.3,30.25,SSW,198,0.0,0.0,95,0.00,CLR,,0.00,WeatherDisplay:10.37,2013-01-23 13:40:00,
2013-01-23 07:45:00,45.6,44.3,30.25,SSW,198,0.0,0.0,95,0.00,,,0.00,WeatherDisplay:10.37,2013-01-23 13:45:00,
2013-01-23 07:50:00,45.7,44.4,30.25,SSW,198,0.0,0.0,95,0.00,,,0.00,WeatherDisplay:10.37,2013-01-23 13:50:00,
2013-01-23 07:55:00,45.8,44.2,30.25,SSW,198,0.0,0.0,94,0.00,CLR,,0.00,WeatherDisplay:10.37,2013-01-23 13:55:00,
2013-01-23 08:00:00,45.9,44.5,30.25,SSW,198,0.0,0.0,95,0.00,CLR,,0.00,WeatherDisplay:10.37,2013-01-23 14:00:00,
2013-01-23 08:05:00,46.1,44.7,30.26,SSW,198,0.0,0.0,95,0.00,,,0.00,WeatherDisplay:10.37,2013-01-23 14:05:00,
2013-01-23 08:10:00,46.2,44.8,30.25,SSW,198,0.0,0.0,95,0.00,,,0.00,WeatherDisplay:10.37,2013-01-23 14:10:00,
2013-01-23 08:15:00,46.4,45.0,30.26,SSW,198,0.0,0.0,95,0.00,,,0.00,WeatherDisplay:10.37,2013-01-23 14:15:00,
2013-01-23 08:20:00,46.6,45.2,30.26,SSW,198,0.0,0.0,95,0.00,,,0.00,WeatherDisplay:10.37,2013-01-23 14:20:00,
2013-01-23 08:25:00,46.9,45.5,30.26,SSW,198,0.0,0.0,95,0.00,,,0.00,WeatherDisplay:10.37,2013-01-23 14:25:00,
2013-01-23 08:30:00,47.2,45.8,30.26,SSW,198,0.0,0.0,95,0.00,,,0.00,WeatherDisplay:10.37,2013-01-23 14:30:00,
2013-01-23 08:35:00,47.2,45.8,30.26,SSW,198,0.0,0.0,95,0.00,,,0.00,WeatherDisplay:10.37,2013-01-23 14:35:00,
2013-01-23 08:40:00,47.2,45.8,30.26,SSW,198,0.0,0.0,95,0.00,,,0.00,WeatherDisplay:10.37,2013-01-23 14:40:00,
2013-01-23 08:45:00,47.2,45.8,30.26,SSW,198,0.0,0.0,95,0.00,,,0.00,WeatherDisplay:10.37,2013-01-23 14:45:00,
2013-01-23 08:50:00,47.2,45.8,30.26,SSW,198,0.0,0.0,95,0.00,,,0.00,WeatherDisplay:10.37,2013-01-23 14:50:00,
2013-01-23 08:55:00,47.2,45.8,30.26,SSW,198,0.0,0.0,95,0.00,,,0.00,WeatherDisplay:10.37,2013-01-23 14:55:00,
2013-01-23 09:00:00,47.2,45.8,30.26,SSW,198,0.0,0.0,95,0.00,,,0.00,WeatherDisplay:10.37,2013-01-23 15:00:00,
2013-01-23 09:05:00,47.2,45.8,30.26,SSW,198,0.0,0.0,95,0.00,,,0.00,WeatherDisplay:10.37,2013-01-23 15:05:00,
2013-01-23 09:10:00,47.2,45.8,30.26,SSW,198,0.0,0.0,95,0.00,,,0.00,WeatherDisplay:10.37,2013-01-23 15:10:00,
2013-01-23 09:15:00,47.2,45.8,30.26,SSW,198,0.0,0.0,95,0.00,,,0.00,WeatherDisplay:10.37,2013-01-23 15:15:00,
2013-01-23 09:20:00,47.2,45.8,30.26,SSW,198,0.0,0.0,95,0.00,,,0.00,WeatherDisplay:10.37,2013-01-23 15:20:00,
2013-01-23 09:25:00,47.2,45.8,30.26,SSW,198,0.0,0.0,95,0.00,,,0.00,WeatherDisplay:10.37,2013-01-23 15:25:00,
2013-01-23 09:30:00,47.2,45.8,30.26,SSW,198,0.0,0.0,95,0.00,,,0.00,WeatherDisplay:10.37,2013-01-23 15:30:00,
2013-01-23 09:35:00,47.2,45.8,30.26,SSW,198,0.0,0.0,95,0.00,,,0.00,WeatherDisplay:10.37,2013-01-23 15:35:00,
2013-01-23 09:40:00,47.2,45.8,30.26,SSW,198,0.0,0.0,95,0.00,,,0.00,WeatherDisplay:10.37,2013-01-23 15:40:00,
2013-01-23 09:45:00,47.2,45.8,30.26,SSW,198,0.0,0.0,95,0.00,,,0.00,WeatherDisplay:10.37,2013-01-23 15:45:00,
2013-01-23 09:50:00,47.2,45.8,30.26,SSW,198,0.0,0.0,95,0.00,,,0.00,WeatherDisplay:10.37,2013-01-23 15:50:00,
2013-01-23 09:55:00,47.2,45.8,30.26,SSW,198,0.0,0.0,95,0.00,,,0.00,WeatherDisplay:10.37,2013-01-23 15:55:00,
2013-01-23 10:00:00,47.2,45.8,30.26,SSW,198,0.0,0.0,95,0.00,,,0.00,WeatherDisplay:10.37,2013-01-23 16:00:00,
2013-01-23 10:05:00,47.2,45.8,30.26,SSW,198,0.0,0.0,95,0.00,,,0.00,WeatherDisplay:10.37,2013-01-23 16:05:00,
2013-01-23 10:10:00,47.2,45.8,30.26,SSW,198,0.0,0.0,95,0.00,,,0.00,WeatherDisplay:10.37,2013-01-23 16:10:00,
2013-01-23 10:15:00,47.2,45.8,30.26,SSW,198,0.0,0.0,95,0.00,,,0.00,WeatherDisplay:10.37,2013-01-23 16:15:00,
2013-01-23 10:20:00,47.2,45.8,30.26,SSW,198,0.0,0.0,95,0.00,,,0.00,WeatherDisplay:10.37,2013-01-23 16:20:00,
2013-01-23 10:25:00,47.2,45.8,30.26,SSW,198,0.0,0.0,95,0.00,,,0.00,WeatherDisplay:10.37,2013-01-23 16:25:00,
2013-01-23 10:30:00,47.2,45.8,30.26,SSW,198,0.0,0.0,95,0.00,,,0.00,WeatherDisplay:10.37,2013-01-23 16:30:00,
2013-01-23 10:35:00,47.2,45.8,30.26,SSW,198,0.0,0.0,95,0.00,,,0.00,WeatherDisplay:10.37,2013-01-23 16:35:00,
2013-01-23 10:40:00,47.2,45.8,30.26,SSW,198,0.0,0.0,95,0.00,,,0.00,WeatherDisplay:10.37,2013-01-23 16:40:00,
2013-01-23 10:45:00,47.2,45.8,30.26,SSW,198,0.0,0.0,95,0.00,,,0.00,WeatherDisplay:10.37,2013-01-23 16:45:00,
2013-01-23 10:50:00,47.2,45.8,30.26,SSW,198,0.0,0.0,95,0.00,,,0.00,WeatherDisplay:10.37,2013-01-23 16:50:00,
2013-01-23 10:55:00,47.2,45.8,30.26,SSW,198,0.0,0.0,95,0.00,,,0.00,WeatherDisplay:10.37,2013-01-23 16:55:00,
2013-01-23 11:00:00,47.2,45.8,30.26,SSW,198,0.0,0.0,95,0.00,,,0.00,WeatherDisplay:10.37,2013-01-23 17:00:00,
2013-01-23 11:05:00,47.2,45.8,30.26,SSW,198,0.0,0.0,95,0.00,,,0.00,WeatherDisplay:10.37,2013-01-23 17:05:00,
2013-01-23 11:10:00,47.2,45.8,30.26,SSW,198,0.0,0.0,95,0.00,,,0.00,WeatherDisplay:10.37,2013-01-23 17:10:00,
2013-01-23 11:15:00,47.2,45.8,30.26,SSW,198,0.0,0.0,95,0.00,,,0.00,WeatherDisplay:10.37,2013-01-23 17:15:00,
2013-01-23 11:20:00,47.2,45.8,30.26,SSW,198,0.0,0.0,95,0.00,,,0.00,WeatherDisplay:10.37,2013-01-23 17:20:00,
2013-01-23 11:25:00,47.2,45.8,30.26,SSW,198,0.0,0.0,95,0.00,,,0.00,WeatherDisplay:10.37,2013-01-23 17:25:00,
2013-01-23 11:30:00,47.2,45.8,30.26,SSW,198,0.0,0.0,95,0.00,,,0.00,WeatherDisplay:10.37,2013-01-23 17:30:00,
2013-01-23 11:35:00,47.2,45.8,30.26,SSW,198,0.0,0.0,95,0.00,,,0.00,WeatherDisplay:10.37,2013-01-23 17:35:00,
2013-01-23 11:40:00,47.2,45.8,30.26,SSW,198,0.0,0.0,95,0.00,,,0.00,WeatherDisplay:10.37,2013-01-23 17:40:00,
2013-01-23 11:45:00,47.2,45.8,30.26,SSW,198,0.0,0.0,95,0.00,,,0.00,WeatherDisplay:10.37,2013-01-23 17:45:00,
2013-01-23 11:50:00,47.2,45.8,30.26,SSW,198,0.0,0.0,95,0.00,,,0.00,WeatherDisplay:10.37,2013-01-23 17:50:00,
2013-01-23 11:55:00,47.2,45.8,30.26,SSW,198,0.0,0.0,95,0.00,,,0.00,WeatherDisplay:10.37,2013-01-23 17:55:00,
2013-01-23 12:00:00,47.2,45.8,30.26,SSW,198,0.0,0.0,95,0.00,,,0.00,WeatherDisplay:10.37,2013-01-23 18:00:00,
2013-01-23 12:05:00,47.2,45.8,30.26,SSW,198,0.0,0.0,95,0.00,,,0.00,WeatherDisplay:10.37,2013-01-23 18:05:00,
2013-01-23 12:10:00,47.2,45.8,30.26,SSW,198,0.0,0.0,95,0.00,,,0.00,WeatherDisplay:10.37,2013-01-23 18:10:00,
2013-01-23 12:15:00,47.2,45.8,30.26,SSW,198,0.0,0.0,95,0.00,,,0.00,WeatherDisplay:10.37,2013-01-23 18:15:00,
2013-01-23 12:20:00,47.2,45.8,30.26,SSW,198,0.0,0.0,95,0.00,,,0.00,WeatherDisplay:10.37,2013-01-23 18:20:00,
2013-01-23 12:25:00,47.2,45.8,30.26,SSW,198,0.0,0.0,95,0.00,,,0.00,WeatherDisplay:10.37,2013-01-23 18:25:00,
2013-01-23 12:30:00,47.2,45.8,30.26,SSW,198,0.0,0.0,95,0.00,,,0.00,WeatherDisplay:10.37,2013-01-23 18:30:00,
2013-01-23 12:35:00,47.2,45.8,30.26,SSW,198,0.0,0.0,95,0.00,,,0.00,WeatherDisplay:10.37,2013-01-23 18:35:00,
2013-01-23 12:40:00,47.2,45.8,30.26,SSW,198,0.0,0.0,95,0.00,,,0.00,WeatherDisplay:10.37,2013-01-23 18:40:00,
2013-01-23 12:45:00,47.2,45.8,30.26,SSW,198,0.0,0.0,95,0.00,,,0.00,WeatherDisplay:10.37,2013-01-23 18:45:00,
2013-01-23 12:50:00,68.3,58.9,30.24,SSW,211,0.4,2.3,72,0.00,,,0.00,WeatherDisplay:10.37,2013-01-23 18:50:00,
2013-01-23 12:55:00,68.6,59.2,30.24,SW,224,1.4,3.5,72,0.00,CLR,,0.00,WeatherDisplay:10.37,2013-01-23 18:55:00,
2013-01-23 13:00:00,69.1,59.3,30.23,East,95,0.0,1.2,71,0.00,CLR,,0.00,WeatherDisplay:10.37,2013-01-23 19:00:00,
2013-01-23 13:05:00,69.5,58.5,30.23,WNW,282,1.2,5.8,68,0.00,CLR,,0.00,WeatherDisplay:10.37,2013-01-23 19:05:00,
2013-01-23 13:10:00,69.7,58.7,30.22,WNW,284,1.4,3.5,68,0.00,CLR,,0.00,WeatherDisplay:10.37,2013-01-23 19:10:00,
2013-01-23 13:15:00,69.9,58.9,30.22,WNW,296,1.3,3.5,68,0.00,CLR,,0.00,WeatherDisplay:10.37,2013-01-23 19:15:00,
2013-01-23 13:20:00,70.0,59.0,30.22,WNW,296,0.1,0.0,68,0.00,CLR,,0.00,WeatherDisplay:10.37,2013-01-23 19:20:00,
2013-01-23 13:25:00,70.3,58.8,30.22,WNW,283,0.3,2.3,67,0.00,CLR,,0.00,WeatherDisplay:10.37,2013-01-23 19:25:00,
2013-01-23 13:30:00,70.6,58.3,30.21,WSW,248,1.8,4.6,65,0.00,CLR,,0.00,WeatherDisplay:10.37,2013-01-23 19:30:00,
2013-01-23 13:35:00,71.0,58.2,30.21,SW,225,2.4,4.6,64,0.00,CLR,,0.00,WeatherDisplay:10.37,2013-01-23 19:35:00,
2013-01-23 13:40:00,71.3,58.1,30.20,West,271,0.9,3.5,63,0.00,CLR,,0.00,WeatherDisplay:10.37,2013-01-23 19:40:00,
2013-01-23 13:45:00,71.7,58.0,30.20,SW,236,3.0,4.6,62,0.00,CLR,,0.00,WeatherDisplay:10.37,2013-01-23 19:45:00,
2013-01-23 13:50:00,72.0,57.8,30.20,SSW,206,2.2,3.5,61,0.00,CLR,,0.00,WeatherDisplay:10.37,2013-01-23 19:50:00,
2013-01-23 13:55:00,72.4,58.2,30.20,SSW,202,0.8,2.3,61,0.00,CLR,,0.00,WeatherDisplay:10.37,2013-01-23 19:55:00,
2013-01-23 14:00:00,72.8,58.1,30.19,SW,215,1.1,3.0,60,0.00,CLR,,0.00,WeatherDisplay:10.37,2013-01-23 20:00:00,
2013-01-23 14:05:00,73.2,58.0,30.19,WSW,239,1.1,3.5,59,0.00,CLR,,0.00,WeatherDisplay:10.37,2013-01-23 20:05:00,
2013-01-23 14:10:00,73.4,57.7,30.19,SSW,198,0.8,3.5,58,0.00,CLR,,0.00,WeatherDisplay:10.37,2013-01-23 20:10:00,
2013-01-23 14:15:00,73.6,58.4,30.19,SW,236,2.1,3.5,59,0.00,CLR,,0.00,WeatherDisplay:10.37,2013-01-23 20:15:00,
2013-01-23 14:20:00,73.9,58.2,30.19,SW,219,1.5,4.0,58,0.00,CLR,,0.00,WeatherDisplay:10.37,2013-01-23 20:20:00,
2013-01-23 14:25:00,74.0,58.3,30.19,North,350,0.2,1.2,58,0.00,CLR,,0.00,WeatherDisplay:10.37,2013-01-23 20:25:00,
2013-01-23 14:30:00,74.4,57.7,30.18,SSE,159,1.1,3.5,56,0.00,CLR,,0.00,WeatherDisplay:10.37,2013-01-23 20:30:00,
2013-01-23 14:35:00,74.8,58.1,30.18,West,278,2.9,6.9,56,0.00,CLR,,0.00,WeatherDisplay:10.37,2013-01-23 20:35:00,
2013-01-23 14:40:00,74.6,57.9,30.18,SE,134,0.7,3.5,56,0.00,CLR,,0.00,WeatherDisplay:10.37,2013-01-23 20:40:00,
2013-01-23 14:45:00,74.8,58.1,30.18,SSW,213,1.1,2.3,56,0.00,CLR,,0.00,WeatherDisplay:10.37,2013-01-23 20:45:00,
2013-01-23 14:50:00,75.0,58.2,30.18,SSW,209,1.4,3.5,56,0.00,CLR,,0.00,WeatherDisplay:10.37,2013-01-23 20:50:00,
2013-01-23 14:55:00,75.5,57.7,30.18,SSW,202,0.9,4.6,54,0.00,CLR,,0.00,WeatherDisplay:10.37,2013-01-23 20:55:00,
2013-01-23 15:00:00,75.8,58.0,30.18,WNW,286,1.0,2.3,54,0.00,CLR,,0.00,WeatherDisplay:10.37,2013-01-23 21:00:00,
2013-01-23 15:05:00,76.0,58.2,30.17,SW,215,0.5,2.3,54,0.00,CLR,,0.00,WeatherDisplay:10.37,2013-01-23 21:05:00,
2013-01-23 15:10:00,76.2,58.3,30.17,WSW,244,0.7,3.5,54,0.00,CLR,,0.00,WeatherDisplay:10.37,2013-01-23 21:10:00,
2013-01-23 15:15:00,76.5,58.6,30.17,SSW,193,1.0,2.3,54,0.00,CLR,,0.00,WeatherDisplay:10.37,2013-01-23 21:15:00,
2013-01-23 15:20:00,76.4,58.0,30.17,WSW,248,1.2,9.2,53,0.00,CLR,,0.00,WeatherDisplay:10.37,2013-01-23 21:20:00,
2013-01-23 15:25:00,76.5,58.1,30.17,WSW,240,2.6,5.8,53,0.00,CLR,,0.00,WeatherDisplay:10.37,2013-01-23 21:25:00,
2013-01-23 15:30:00,76.4,58.0,30.17,WSW,251,2.0,4.6,53,0.00,CLR,,0.00,WeatherDisplay:10.37,2013-01-23 21:30:00,
2013-01-23 15:35:00,76.4,58.0,30.16,WSW,254,0.0,0.0,53,0.00,CLR,,0.00,WeatherDisplay:10.37,2013-01-23 21:35:00,
2013-01-23 15:40:00,76.6,58.2,30.16,WSW,244,0.1,2.3,53,0.00,CLR,,0.00,WeatherDisplay:10.37,2013-01-23 21:40:00,
2013-01-23 15:45:00,76.8,58.4,30.16,WSW,246,1.3,3.5,53,0.00,CLR,,0.00,WeatherDisplay:10.37,2013-01-23 21:45:00,
2013-01-23 15:50:00,76.8,58.4,30.16,SW,236,2.0,4.6,53,0.00,CLR,,0.00,WeatherDisplay:10.37,2013-01-23 21:50:00,
2013-01-23 15:55:00,76.5,57.6,30.16,SSW,204,2.9,6.9,52,0.00,CLR,,0.00,WeatherDisplay:10.37,2013-01-23 21:55:00,
2013-01-23 16:00:00,76.4,58.0,30.16,SW,222,1.6,3.5,53,0.00,CLR,,0.00,WeatherDisplay:10.37,2013-01-23 22:00:00,
2013-01-23 16:05:00,76.3,57.9,30.16,WSW,242,1.6,3.5,53,0.00,CLR,,0.00,WeatherDisplay:10.37,2013-01-23 22:05:00,
2013-01-23 16:10:00,76.2,57.8,30.16,SE,144,3.3,6.9,53,0.00,CLR,,0.00,WeatherDisplay:10.37,2013-01-23 22:10:00,
2013-01-23 16:15:00,76.0,57.6,30.16,West,263,2.7,5.0,53,0.00,CLR,,0.00,WeatherDisplay:10.37,2013-01-23 22:15:00,
2013-01-23 16:20:00,75.6,57.3,30.16,West,268,1.7,3.5,53,0.00,CLR,,0.00,WeatherDisplay:10.37,2013-01-23 22:20:00,
2013-01-23 16:25:00,75.3,57.5,30.16,SW,236,2.9,7.0,54,0.00,CLR,,0.00,WeatherDisplay:10.37,2013-01-23 22:25:00,
2013-01-23 16:30:00,74.9,57.6,30.16,SSW,192,0.5,6.9,55,0.00,CLR,,0.00,WeatherDisplay:10.37,2013-01-23 22:30:00,
2013-01-23 16:35:00,74.8,57.5,30.16,SW,228,1.2,3.5,55,0.00,CLR,,0.00,WeatherDisplay:10.37,2013-01-23 22:35:00,
2013-01-23 16:40:00,74.5,57.3,30.17,SSW,213,0.7,3.5,55,0.00,CLR,,0.00,WeatherDisplay:10.37,2013-01-23 22:40:00,
2013-01-23 16:45:00,74.2,57.5,30.17,WSW,254,0.6,3.0,56,0.00,CLR,,0.00,WeatherDisplay:10.37,2013-01-23 22:45:00,
2013-01-23 16:50:00,73.9,57.2,30.17,SSW,204,2.1,5.8,56,0.00,CLR,,0.00,WeatherDisplay:10.37,2013-01-23 22:50:00,
2013-01-23 16:55:00,73.7,57.0,30.17,SW,214,0.1,3.5,56,0.00,CLR,,0.00,WeatherDisplay:10.37,2013-01-23 22:55:00,
2013-01-23 17:00:00,73.6,57.4,30.17,SW,217,0.0,0.0,57,0.00,CLR,,0.00,WeatherDisplay:10.37,2013-01-23 23:00:00,
2013-01-23 17:05:00,73.4,57.7,30.17,SW,226,0.1,1.0,58,0.00,CLR,,0.00,WeatherDisplay:10.37,2013-01-23 23:05:00,
2013-01-23 17:10:00,73.2,57.5,30.17,West,268,0.1,1.2,58,0.00,CLR,,0.00,WeatherDisplay:10.37,2013-01-23 23:10:00,
2013-01-23 17:15:00,73.1,57.4,30.17,West,268,0.2,2.0,58,0.00,CLR,,0.00,WeatherDisplay:10.37,2013-01-23 23:15:00,
2013-01-23 17:20:00,72.8,57.2,30.16,NE,34,0.2,0.0,58,0.00,CLR,,0.00,WeatherDisplay:10.37,2013-01-23 23:20:00,
2013-01-23 17:25:00,72.7,57.5,30.17,West,277,0.4,0.0,59,0.00,CLR,,0.00,WeatherDisplay:10.37,2013-01-23 23:25:00,
2013-01-23 17:30:00,72.6,57.4,30.17,West,260,0.0,0.0,59,0.00,CLR,,0.00,WeatherDisplay:10.37,2013-01-23 23:30:00,
2013-01-23 17:35:00,72.4,57.3,30.17,South,183,0.0,1.2,59,0.00,CLR,,0.00,WeatherDisplay:10.37,2013-01-23 23:35:00,
2013-01-23 17:40:00,72.3,57.2,30.17,South,183,0.0,0.0,59,0.00,CLR,,0.00,WeatherDisplay:10.37,2013-01-23 23:40:00,
2013-01-23 17:45:00,72.1,57.4,30.17,South,184,0.0,0.0,60,0.00,CLR,,0.00,WeatherDisplay:10.37,2013-01-23 23:45:00,
2013-01-23 17:50:00,72.0,57.4,30.17,South,184,0.0,0.0,60,0.00,CLR,,0.00,WeatherDisplay:10.37,2013-01-23 23:50:00,
2013-01-23 17:55:00,71.8,57.2,30.16,South,184,0.0,0.0,60,0.00,CLR,,0.00,WeatherDisplay:10.37,2013-01-23 23:55:00,
2013-01-23 18:00:00,71.5,57.3,30.16,South,184,0.0,0.0,61,0.00,CLR,,0.00,WeatherDisplay:10.37,2013-01-24 00:00:00,
2013-01-23 18:05:00,71.2,57.1,30.16,South,184,0.0,0.0,61,0.00,CLR,,0.00,WeatherDisplay:10.37,2013-01-24 00:05:00,
2013-01-23 18:10:00,70.9,57.2,30.16,South,184,0.0,0.0,62,0.00,CLR,,0.00,WeatherDisplay:10.37,2013-01-24 00:10:00,
2013-01-23 18:15:00,70.4,56.8,30.16,South,184,0.0,0.0,62,0.00,CLR,,0.00,WeatherDisplay:10.37,2013-01-24 00:15:00,
2013-01-23 18:20:00,69.9,56.3,30.16,South,184,0.0,0.0,62,0.00,CLR,,0.00,WeatherDisplay:10.37,2013-01-24 00:20:00,
2013-01-23 18:25:00,69.5,56.3,30.16,South,184,0.0,0.0,63,0.00,CLR,,0.00,WeatherDisplay:10.37,2013-01-24 00:25:00,
2013-01-23 18:30:00,69.1,56.4,30.16,South,184,0.0,0.0,64,0.00,CLR,,0.00,WeatherDisplay:10.37,2013-01-24 00:30:00,
2013-01-23 18:35:00,68.5,56.3,30.16,South,184,0.0,0.0,65,0.00,CLR,,0.00,WeatherDisplay:10.37,2013-01-24 00:35:00,
2013-01-23 18:40:00,67.9,55.7,30.16,South,184,0.0,0.0,65,0.00,CLR,,0.00,WeatherDisplay:10.37,2013-01-24 00:40:00,
2013-01-23 18:45:00,67.4,55.6,30.16,South,184,0.0,0.0,66,0.00,CLR,,0.00,WeatherDisplay:10.37,2013-01-24 00:45:00,
2013-01-23 18:50:00,66.7,55.4,30.16,South,184,0.0,0.0,67,0.00,CLR,,0.00,WeatherDisplay:10.37,2013-01-24 00:50:00,
2013-01-23 18:55:00,66.1,54.8,30.16,South,184,0.0,0.0,67,0.00,CLR,,0.00,WeatherDisplay:10.37,2013-01-24 00:55:00,
2013-01-23 19:00:00,65.6,54.8,30.16,South,184,0.0,0.0,68,0.00,CLR,,0.00,WeatherDisplay:10.37,2013-01-24 01:00:00,
2013-01-23 19:05:00,65.1,54.7,30.16,South,184,0.0,0.0,69,0.00,CLR,,0.00,WeatherDisplay:10.37,2013-01-24 01:05:00,
2013-01-23 19:10:00,64.4,54.4,30.16,South,184,0.0,0.0,70,0.00,CLR,,0.00,WeatherDisplay:10.37,2013-01-24 01:10:00,
2013-01-23 19:15:00,63.7,54.5,30.16,South,184,0.0,0.0,72,0.00,CLR,,0.00,WeatherDisplay:10.37,2013-01-24 01:15:00,
2013-01-23 19:20:00,63.2,54.4,30.16,South,184,0.0,0.0,73,0.00,CLR,,0.00,WeatherDisplay:10.37,2013-01-24 01:20:00,
2013-01-23 19:25:00,62.7,53.9,30.16,South,184,0.0,0.0,73,0.00,CLR,,0.00,WeatherDisplay:10.37,2013-01-24 01:25:00,
2013-01-23 19:30:00,62.2,53.8,30.16,South,184,0.0,0.0,74,0.00,CLR,,0.00,WeatherDisplay:10.37,2013-01-24 01:30:00,
2013-01-23 19:35:00,61.7,53.7,30.16,South,184,0.0,0.0,75,0.00,CLR,,0.00,WeatherDisplay:10.37,2013-01-24 01:35:00,
2013-01-23 19:40:00,61.3,53.7,30.16,South,184,0.0,0.0,76,0.00,CLR,,0.00,WeatherDisplay:10.37,2013-01-24 01:40:00,
2013-01-23 19:45:00,60.9,53.3,30.16,South,184,0.0,0.0,76,0.00,CLR,,0.00,WeatherDisplay:10.37,2013-01-24 01:45:00,
2013-01-23 19:50:00,60.4,53.2,30.16,South,184,0.0,0.0,77,0.00,CLR,,0.00,WeatherDisplay:10.37,2013-01-24 01:50:00,
2013-01-23 19:55:00,60.1,53.2,30.16,South,184,0.0,0.0,78,0.00,CLR,,0.00,WeatherDisplay:10.37,2013-01-24 01:55:00,
2013-01-23 20:00:00,59.7,52.8,30.16,South,184,0.0,0.0,78,0.00,CLR,,0.00,WeatherDisplay:10.37,2013-01-24 02:00:00,
2013-01-23 20:05:00,59.4,52.5,30.16,South,184,0.0,0.0,78,0.00,CLR,,0.00,WeatherDisplay:10.37,2013-01-24 02:05:00,
2013-01-23 20:10:00,59.1,52.6,30.16,South,184,0.0,0.0,79,0.00,CLR,,0.00,WeatherDisplay:10.37,2013-01-24 02:10:00,
2013-01-23 20:15:00,58.9,52.4,30.16,South,184,0.0,0.0,79,0.00,CLR,,0.00,WeatherDisplay:10.37,2013-01-24 02:15:00,
2013-01-23 20:20:00,58.6,52.4,30.16,South,184,0.0,0.0,80,0.00,CLR,,0.00,WeatherDisplay:10.37,2013-01-24 02:20:00,
2013-01-23 20:25:00,58.2,52.1,30.16,South,184,0.0,0.0,80,0.00,CLR,,0.00,WeatherDisplay:10.37,2013-01-24 02:25:00,
2013-01-23 20:30:00,58.0,52.2,30.16,South,184,0.0,0.0,81,0.00,CLR,,0.00,WeatherDisplay:10.37,2013-01-24 02:30:00,
2013-01-23 20:35:00,57.7,51.9,30.16,South,184,0.0,0.0,81,0.00,CLR,,0.00,WeatherDisplay:10.37,2013-01-24 02:35:00,
2013-01-23 20:40:00,57.5,51.7,30.16,South,184,0.0,0.0,81,0.00,CLR,,0.00,WeatherDisplay:10.37,2013-01-24 02:40:00,
2013-01-23 20:45:00,57.3,51.9,30.17,South,184,0.0,0.0,82,0.00,CLR,,0.00,WeatherDisplay:10.37,2013-01-24 02:45:00,
2013-01-23 20:50:00,57.0,51.6,30.17,South,184,0.0,0.0,82,0.00,CLR,,0.00,WeatherDisplay:10.37,2013-01-24 02:50:00,
2013-01-23 20:55:00,56.8,51.7,30.17,South,184,0.0,0.0,83,0.00,CLR,,0.00,WeatherDisplay:10.37,2013-01-24 02:55:00,
2013-01-23 21:00:00,56.6,51.5,30.17,South,184,0.0,0.0,83,0.00,CLR,,0.00,WeatherDisplay:10.37,2013-01-24 03:00:00,
2013-01-23 21:05:00,56.4,51.3,30.17,South,184,0.0,0.0,83,0.00,CLR,,0.00,WeatherDisplay:10.37,2013-01-24 03:05:00,
2013-01-23 21:10:00,56.2,51.1,30.18,South,184,0.0,0.0,83,0.00,CLR,,0.00,WeatherDisplay:10.37,2013-01-24 03:10:00,
2013-01-23 21:15:00,56.0,51.2,30.18,South,184,0.0,0.0,84,0.00,CLR,,0.00,WeatherDisplay:10.37,2013-01-24 03:15:00,
2013-01-23 21:20:00,55.8,51.0,30.18,South,184,0.0,0.0,84,0.00,CLR,,0.00,WeatherDisplay:10.37,2013-01-24 03:20:00,
2013-01-23 21:25:00,55.7,51.3,30.18,South,184,0.0,0.0,85,0.00,CLR,,0.00,WeatherDisplay:10.37,2013-01-24 03:25:00,
2013-01-23 21:30:00,55.6,51.2,30.18,South,184,0.0,0.0,85,0.00,CLR,,0.00,WeatherDisplay:10.37,2013-01-24 03:30:00,
2013-01-23 21:35:00,55.5,51.1,30.18,South,184,0.0,0.0,85,0.00,CLR,,0.00,WeatherDisplay:10.37,2013-01-24 03:35:00,
2013-01-23 21:40:00,55.4,51.3,30.18,South,184,0.0,0.0,86,0.00,CLR,,0.00,WeatherDisplay:10.37,2013-01-24 03:40:00,
2013-01-23 21:45:00,55.5,51.7,30.19,South,184,0.0,0.0,87,0.00,CLR,,0.00,WeatherDisplay:10.37,2013-01-24 03:45:00,
2013-01-23 21:50:00,55.6,52.1,30.19,South,184,0.0,0.0,88,0.00,CLR,,0.00,WeatherDisplay:10.37,2013-01-24 03:50:00,
2013-01-23 21:55:00,55.8,52.3,30.19,South,184,0.0,0.0,88,0.00,CLR,,0.00,WeatherDisplay:10.37,2013-01-24 03:55:00,
2013-01-23 22:00:00,56.0,52.8,30.19,South,184,0.0,0.0,89,0.00,CLR,,0.00,WeatherDisplay:10.37,2013-01-24 04:00:00,
2013-01-23 22:05:00,56.1,53.2,30.19,South,184,0.0,0.0,90,0.00,CLR,,0.00,WeatherDisplay:10.37,2013-01-24 04:05:00,
2013-01-23 22:10:00,56.3,53.4,30.19,SW,227,0.0,0.0,90,0.00,CLR,,0.00,WeatherDisplay:10.37,2013-01-24 04:10:00,
2013-01-23 22:15:00,56.6,53.7,30.19,SW,227,0.0,0.0,90,0.00,CLR,,0.00,WeatherDisplay:10.37,2013-01-24 04:15:00,
2013-01-23 22:20:00,56.9,54.0,30.19,SW,227,0.0,0.0,90,0.00,CLR,,0.00,WeatherDisplay:10.37,2013-01-24 04:20:00,
2013-01-23 22:25:00,57.2,54.6,30.19,SW,227,0.0,0.0,91,0.00,CLR,,0.00,WeatherDisplay:10.37,2013-01-24 04:25:00,
2013-01-23 22:30:00,57.5,54.9,30.19,SW,227,0.0,0.0,91,0.00,CLR,,0.00,WeatherDisplay:10.37,2013-01-24 04:30:00,
2013-01-23 22:35:00,57.7,55.1,30.19,West,273,0.0,1.2,91,0.00,CLR,,0.00,WeatherDisplay:10.37,2013-01-24 04:35:00,
2013-01-23 22:40:00,58.0,55.4,30.19,WSW,248,0.0,0.0,91,0.00,CLR,,0.00,WeatherDisplay:10.37,2013-01-24 04:40:00,
2013-01-23 22:45:00,58.3,55.7,30.19,SW,232,0.0,0.0,91,0.00,CLR,,0.00,WeatherDisplay:10.37,2013-01-24 04:45:00,
2013-01-23 22:50:00,58.5,55.9,30.19,SW,234,0.0,0.0,91,0.00,CLR,,0.00,WeatherDisplay:10.37,2013-01-24 04:50:00,
2013-01-23 22:55:00,58.8,56.2,30.19,SW,234,0.0,0.0,91,0.00,CLR,,0.00,WeatherDisplay:10.37,2013-01-24 04:55:00,
2013-01-23 23:01:00,59.0,56.4,30.19,SW,234,0.0,0.0,91,0.00,CLR,,0.00,WeatherDisplay:10.37,2013-01-24 05:01:00,
2013-01-23 23:03:00,59.0,56.4,30.19,SW,234,0.0,0.0,91,0.00,CLR,,0.00,WeatherDisplay:10.37,2013-01-24 05:03:00,
2013-01-23 23:08:00,59.1,56.5,30.19,SW,234,0.0,0.0,91,0.00,CLR,,0.00,WeatherDisplay:10.37,2013-01-24 05:08:00,
2013-01-23 23:13:00,59.3,56.7,30.19,SW,234,0.0,0.0,91,0.00,CLR,,0.00,WeatherDisplay:10.37,2013-01-24 05:13:00,
2013-01-23 23:18:00,59.4,56.8,30.19,SW,234,0.0,0.0,91,0.00,CLR,,0.00,WeatherDisplay:10.37,2013-01-24 05:18:00,
2013-01-23 23:23:00,59.4,56.8,30.19,SW,234,0.0,0.0,91,0.00,CLR,,0.00,WeatherDisplay:10.37,2013-01-24 05:23:00,
2013-01-23 23:28:00,59.4,56.5,30.19,SW,234,0.0,0.0,90,0.00,CLR,,0.00,WeatherDisplay:10.37,2013-01-24 05:28:00,
2013-01-23 23:33:00,59.4,56.5,30.19,SW,230,0.0,1.2,90,0.00,CLR,,0.00,WeatherDisplay:10.37,2013-01-24 05:33:00,
2013-01-23 23:38:00,59.4,56.5,30.19,SW,230,0.0,0.0,90,0.00,CLR,,0.00,WeatherDisplay:10.37,2013-01-24 05:38:00,
2013-01-23 23:43:00,59.3,56.4,30.19,SW,230,0.0,0.0,90,0.00,CLR,,0.00,WeatherDisplay:10.37,2013-01-24 05:43:00,
2013-01-23 23:48:00,59.3,56.4,30.19,SW,230,0.0,0.0,90,0.00,CLR,,0.00,WeatherDisplay:10.37,2013-01-24 05:48:00,
2013-01-23 23:53:00,59.2,56.3,30.19,SW,230,0.0,0.0,90,0.00,CLR,,0.00,WeatherDisplay:10.37,2013-01-24 05:53:00,
2013-01-23 23:58:00,59.2,56.6,30.18,SW,230,0.0,0.0,91,0.00,CLR,,0.00,WeatherDisplay:10.37,2013-01-24 05:58:00,